Theta_e
292 294 293 293 293 294 295 297 299 299 302 304 306 312 318 322 323 323 322 321 321 320
289 290 291 290 290 290 292 292 293 295 296 299 301 306 310 315 318 322 322 321 321 320
287 286 287 289 286 286 288 289 290 291 293 295 297 300 303 306 311 315 319 321 321 320
284 283 283 283 284 284 285 286 287 289 291 292 294 296 297 299 303 305 309 313 316 318
281 280 280 280 281 282 282 283 284 286 288 290 291 294 294 294 297 299 298 301 304 307
278 278 278 278 279 280 280 281 282 283 284 286 289 291 293 294 294 294 294 296 298 299
276 276 276 277 278 278 279 279 279 280 281 283 286 289 291 291 291 292 293 294 295 296
275 275 276 276 276 277 278 278 278 279 279 281 284 287 288 289 290 290 291 293 293 295
274 274 275 275 275 275 276 276 277 277 278 279 282 285 286 287 287 287 289 291 292 293
273 273 273 273 274 274 274 275 275 276 278 279 281 284 286 286 286 286 287 289 291 292
271 271 272 272 273 273 274 274 275 277 279 281 282 285 286 286 286 286 287 288 289 290
270 270 270 271 272 273 273 274 276 278 279 278 279 282 283 284 284 284 285 287 288 290
269 269 270 271 271 272 274 275 277 278 277 277 277 280 281 282 282 282 284 286 287 288
268 269 271 271 271 272 274 274 274 275 275 276 276 277 279 281 279 279 280 284 285 286
Wind_Speed
14 9 8 10 9 8 8 10 13 13 13 13 13 12 11 10 10 10 11 15 13 11
12 13 10 11 10 8 10 10 13 14 14 14 14 14 13 9 11 12 10 12 12 13
12 13 12 10 13 13 12 14 14 14 14 15 14 15 14 11 12 13 10 10 12 11
10 11 11 11 12 12 13 14 15 15 15 15 15 14 14 15 14 14 13 12 13 14
11 11 11 12 12 13 13 13 14 15 15 15 15 14 14 16 16 15 17 17 15 15
12 12 12 13 13 13 13 13 13 14 15 16 15 15 14 14 15 17 17 16 16 16
13 13 13 13 14 14 14 14 15 14 15 15 15 15 14 16 18 18 17 17 17 17
13 13 13 14 14 15 14 14 14 15 15 15 14 11 17 17 18 19 20 19 18 17
13 13 14 14 14 14 14 14 13 14 14 14 11 24 26 24 19 20 19 17 18 19
14 14 14 14 14 14 14 14 14 14 14 14 13 23 27 28 18 20 19 19 17 16
13 14 14 14 15 14 12 13 12 13 13 13 12 26 29 31 21 19 20 19 19 17
12 12 13 14 14 13 13 12 12 13 15 17 16 29 31 29 20 19 21 20 19 16
11 11 13 14 14 13 12 12 9 11 12 14 14 24 30 28 15 19 17 20 21 21
10 11 11 12 11 10 10 9 9 10 11 12 15 17 30 32 17 16 16 16 14 13
Wind_Direction
24 24 24 18 7 1 353 343 339 336 333 331 327 319 314 302 271 262 258 248 239 242
19 15 9 8 5 355 347 342 341 338 335 333 331 328 325 314 304 283 259 253 258 257
12 8 360 0 359 355 346 343 339 339 338 334 335 335 333 324 318 315 305 282 267 256
10 8 360 360 354 350 344 343 339 337 334 333 333 335 333 327 322 322 315 327 321 297
4 6 6 354 352 346 343 341 339 336 331 330 329 329 332 329 324 328 322 318 316 306
1 356 0 354 351 346 342 341 341 340 335 331 325 326 330 323 324 320 314 312 311 308
356 351 356 349 348 342 343 342 343 340 334 332 327 326 325 330 320 314 310 307 304 303
350 352 349 351 345 340 344 340 338 336 337 334 329 331 331 316 312 311 308 303 301 298
351 354 351 345 344 342 340 339 338 341 339 335 332 326 325 321 314 310 303 300 300 299
354 351 346 344 342 344 340 340 342 342 339 331 323 327 325 318 309 304 300 297 296 294
354 348 345 346 344 341 337 338 335 336 332 327 326 331 333 330 318 308 300 295 292 287
350 344 342 343 339 338 336 330 333 338 344 343 338 341 340 337 333 318 310 303 297 288
345 347 344 340 338 330 324 315 329 342 344 334 336 339 340 340 332 324 317 308 303 292
342 344 343 338 331 327 342 334 347 349 346 343 342 338 345 342 337 328 321 317 307 301